This demonstration page uses our WeatherBlox Daily Observations layout. Learn more.

Left ArrowRight Arrow

38.80484, -77.04692

Hourly Observations for August 23, 2021

Temp ( °F °C ) Dew Point ( °F °C ) Humidity (%) Winds ( mph kmh ) Pressure ( in mb ) Visibility ( mi km ) Precip ( " mm )
12:52 am 00:52 Cloudy 76 24.4 69 20.6 79 79 S 5 7 29.88 1012 10 16 N/A
1:52 am 01:52 Cloudy with Light Rain 76 24.4 70 21.1 82 82 S 8 13 29.88 1012 10 16 0.00 0.00
2:52 am 02:52 Cloudy 75 23.9 69 20.6 82 82 SSW 7 11 29.86 1011 10 16 0.00 0.00
3:52 am 03:52 Cloudy 75 23.9 69 20.6 82 82 SSW 7 11 29.85 1011 10 16 N/A
4:52 am 04:52 Cloudy 74 23.3 69 20.6 85 85 S 6 9 29.85 1011 10 16 N/A
5:52 am 05:52 Mostly Cloudy 74 23.3 68 20 82 82 S 5 7 29.85 1011 10 16 N/A
6:52 am 06:52 Mostly Cloudy 75 23.9 68 20 79 79 SSW 5 7 29.86 1011 10 16 N/A
7:52 am 07:52 Mostly Cloudy 76 24.4 68 20 77 77 S 6 9 29.88 1012 10 16 N/A
8:52 am 08:52 Mostly Cloudy 82 27.8 67 19.4 60 60 WNW 7 11 29.88 1012 10 16 N/A
9:52 am 09:52 Partly Cloudy 84 28.9 68 20 59 59 W 7 11 29.88 1012 10 16 N/A
10:52 am 10:52 Mostly Sunny 86 30 69 20.6 57 57 NW 6 9 29.89 1012 10 16 N/A
11:52 am 11:52 Partly Cloudy 88 31.1 69 20.6 54 54 NNW 10 17 29.88 1012 10 16 N/A
12:52 pm 12:52 Mostly Sunny 89 31.7 69 20.6 52 52 NNW 17 28 29.87 1012 10 16 N/A
1:52 pm 13:52 Mostly Sunny 90 32.2 70 21.1 52 52 NW 10 17 29.87 1012 10 16 N/A
2:52 pm 14:52 Mostly Sunny 92 33.3 69 20.6 47 47 NW 13 20 29.86 1011 10 16 N/A
3:52 pm 15:52 Mostly Cloudy 92 33.3 69 20.6 47 47 NW 13 20 29.85 1011 10 16 N/A
4:52 pm 16:52 Partly Cloudy 93 33.9 68 20 44 44 WNW 9 15 29.84 1011 10 16 N/A
5:52 pm 17:52 Partly Cloudy 93 33.9 67 19.4 42 42 NNW 8 13 29.85 1011 10 16 N/A
6:52 pm 18:52 Mostly Sunny 92 33.3 67 19.4 44 44 W 5 7 29.85 1011 10 16 N/A
7:52 pm 19:52 Mostly Cloudy 90 32.2 67 19.4 47 47 W 5 7 29.86 1011 10 16 N/A
8:52 pm 20:52 Mostly Cloudy 88 31.1 69 20.6 54 54 WSW 6 9 29.89 1012 10 16 N/A
9:52 pm 21:52 Mostly Cloudy 86 30 70 21.1 59 59 SW 6 9 29.89 1012 10 16 N/A
10:31 pm 22:31 Mostly Cloudy with Nearby Thunderstorms 85 29.4 71 21.7 63 63 SSW 5 7 29.90 1012 10 16 N/A
10:44 pm 22:44 Mostly Cloudy 86 30 71 21.7 61 61 W 14 22 29.91 1013 10 16 N/A
10:52 pm 22:52 Mostly Cloudy 84 28.9 70 21.1 63 63 W 15 24 29.90 1013 8 13 N/A
11:12 pm 23:12 Cloudy with Light Rain 82 27.8 70 21.1 67 67 NNW 15 24 29.92 1013 7 11 0.01 0.25
11:16 pm 23:16 Cloudy with Light Rain 81 27.2 71 21.7 72 72 NNW 12 19 29.92 1013 7 11 0.02 0.51
11:52 pm 23:52 Mostly Cloudy 81 27.2 73 22.8 77 77 N N/A 29.92 1013 10 16 0.02 0.51

Powered by AerisWeather